Location: Chavannes
(47.1090°N, 0.2226°W)
Time: 12:53:04
(UTC+00:00)

Cosmos 2227 Rocket - Pass Details

Date: 16 October 2021
Orbit: 839 x 845 km, 71.0° (Epoch: 03 December)

Event Time Altitude Azimuth Distance (km) Brightness Sun altitude
Rises 17:41:35 0° 332° (NNW) 3,415 5.7 -5.9°
Reaches altitude 10° 17:44:02 10° 331° (NNW) 2,476 5.0 -6.3°
Maximum altitude 17:49:43 80° 246° (WSW) 863 2.4 -7.3°
Drops below altitude 10° 17:55:22 10° 160° (SSE) 2,456 4.5 -8.2°
Sets 17:57:47 0° 159° (SSE) 3,386 5.2 -8.6°
